Change the Weather History Date:

Wednesday, March 27, 2013

  Actual Average Record
Temperature  
Mean Temperature 40 °F 39 °F  
Max Temperature 57 °F 51 °F 72 °F (2015)
Min Temperature 23 °F 27 °F 2 °F (2009)
Degree Days  
Heating Degree Days 25 26  
Month to date heating degree days 801 816  
Since 1 July heating degree days 6367 6670  
Cooling Degree Days 0 0  
Month to date cooling degree days 0 0  
Year to date cooling degree days 0 0  
Moisture  
Dew Point 18 °F    
Average Humidity 48    
Maximum Humidity 74    
Minimum Humidity 22    
Precipitation  
Precipitation 0.00 in 0.03 in 0.22 in (2003)
Month to date precipitation 0.11 0.44  
Year to date precipitation 0.76 0.95  
Snow  
Snow 0.00 in - - ()
Month to date snowfall 1.1  
Since 1 July snowfall 19.9  
Snow Depth 0.00 in    
Sea Level Pressure  
Sea Level Pressure 30.00 in    
Wind  
Wind Speed 7 mph (NW)    
Max Wind Speed 16 mph    
Max Gust Speed 22 mph    
Visibility 10 miles    
Events      
T = Trace of Precipitation, MM = Missing Value Source: NWS Daily Summary

Daily Weather History Graph

Daily Weather History Graph

Search for Another Location

Airport or City:

Trip Planner

Search our weather history database for the weather conditions in past years. The results will help you decide how hot, cold, wet, or windy it might be!

Date:

Astronomy

Mar. 27, 2013 Rise Set
Actual Time 7:04 AM MDT 7:34 PM MDT
Civil Twilight 6:35 AM MDT 8:03 PM MDT
Nautical Twilight 6:02 AM MDT 8:37 PM MDT
Astronomical Twilight 5:27 AM MDT 9:11 PM MDT
Moon 8:24 PM MDT (3/27) 6:55 AM MDT (3/27)
Length of Visible Light 13h 27m
Length of Day
12h 30m
Full, 100% of the Moon is Illuminated
Mar 27
Full
Apr 2
Last Quarter
Apr 10
New
Apr 18
First Quarter
Apr 25
Full

Hourly Weather History & Observations

Time (MDT) Temp. Windchill Dew Point Humidity Pressure Visibility Wind Dir Wind Speed Gust Speed Precip Events Conditions
12:53 AM 30.0 °F 22.4 °F 14.0 °F 51% 29.98 in 10.0 mi NNW 8.1 mph - N/A   Clear
1:53 AM 28.9 °F 22.8 °F 16.0 °F 58% 29.98 in 10.0 mi NNW 5.8 mph - N/A   Clear
2:53 AM 27.0 °F 19.5 °F 16.0 °F 63% 30.00 in 10.0 mi NNW 6.9 mph - N/A   Partly Cloudy
3:53 AM 26.1 °F 15.6 °F 16.0 °F 66% 30.00 in 10.0 mi NW 11.5 mph - N/A   Clear
4:53 AM 24.1 °F 14.4 °F 17.1 °F 75% 30.00 in 10.0 mi NNW 9.2 mph - N/A   Clear
5:53 AM 23.0 °F 13.1 °F 15.1 °F 72% 30.02 in 10.0 mi WNW 9.2 mph - N/A   Clear
6:53 AM 25.0 °F 15.5 °F 15.1 °F 66% 30.03 in 10.0 mi NW 9.2 mph - N/A   Clear
7:53 AM 28.0 °F 20.0 °F 17.1 °F 63% 30.05 in 10.0 mi WNW 8.1 mph - N/A   Clear
8:53 AM 35.1 °F 30.1 °F 21.0 °F 57% 30.04 in 10.0 mi WNW 5.8 mph - N/A   Clear
9:53 AM 39.9 °F 37.8 °F 23.0 °F 51% 30.03 in 10.0 mi West 3.5 mph - N/A   Clear
10:53 AM 44.1 °F - 23.0 °F 43% 30.01 in 10.0 mi Calm Calm - N/A   Clear
11:53 AM 46.9 °F - 21.0 °F 36% 30.01 in 10.0 mi Calm Calm - N/A   Clear
12:53 PM 48.0 °F - 19.9 °F 33% 30.01 in 10.0 mi South 8.1 mph - N/A   Clear
1:53 PM 51.1 °F - 19.9 °F 29% 29.98 in 10.0 mi Calm Calm - N/A   Clear
2:53 PM 53.1 °F - 19.0 °F 26% 29.96 in 10.0 mi Calm Calm - N/A   Clear
3:53 PM 53.1 °F - 19.0 °F 26% 29.96 in 10.0 mi West 3.5 mph - N/A   Clear
4:53 PM 55.0 °F - 17.1 °F 23% 29.95 in 10.0 mi WNW 4.6 mph - N/A   Partly Cloudy
5:53 PM 55.0 °F - 17.1 °F 23% 29.96 in 10.0 mi Calm Calm - N/A   Mostly Cloudy
6:53 PM 51.1 °F - 17.1 °F 26% 29.97 in 10.0 mi Calm Calm - N/A   Partly Cloudy
7:53 PM 50.0 °F - 16.0 °F 26% 29.99 in 10.0 mi NW 13.8 mph - N/A   Overcast
8:53 PM 43.0 °F 37.7 °F 17.1 °F 35% 30.01 in 10.0 mi NNW 9.2 mph - N/A   Partly Cloudy
9:53 PM 39.9 °F 32.9 °F 16.0 °F 38% 30.02 in 10.0 mi WNW 11.5 mph - N/A   Clear
10:53 PM 39.0 °F 32.3 °F 17.1 °F 41% 30.02 in 10.0 mi West 10.4 mph - N/A   Clear
11:53 PM 37.9 °F 29.6 °F 17.1 °F 43% 30.01 in 10.0 mi WNW 13.8 mph - N/A   Clear